Temp
-16 -17 -17 -17 -18 -18 -18 -19 -20 -22 -23 -23 -23 -23 -23 -22 -22 -21 -20 -18 -17 -16 -16 -16 -15 -14 -15 -15 -15 -13 -13 -13
-17 -17 -17 -18 -18 -19 -19 -19 -20 -22 -23 -23 -23 -23 -23 -23 -23 -23 -22 -21 -20 -18 -17 -16 -16 -15 -15 -15 -14 -14 -15 -14
-18 -18 -18 -18 -19 -19 -19 -20 -20 -22 -23 -23 -23 -23 -23 -23 -23 -23 -22 -22 -21 -21 -20 -17 -16 -16 -15 -15 -14 -14 -13 -13
-18 -18 -19 -19 -19 -19 -20 -20 -20 -21 -23 -23 -24 -24 -24 -23 -23 -23 -23 -22 -22 -21 -21 -20 -18 -16 -16 -15 -15 -14 -13 -14
-18 -18 -19 -19 -19 -20 -20 -20 -21 -21 -22 -24 -24 -25 -25 -25 -24 -23 -23 -23 -22 -22 -21 -21 -20 -18 -16 -16 -15 -15 -14 -14
-18 -19 -19 -20 -20 -20 -20 -21 -21 -22 -22 -24 -25 -25 -25 -25 -24 -24 -23 -23 -22 -22 -21 -21 -21 -20 -17 -16 -15 -15 -15 -14
-19 -19 -20 -20 -20 -21 -21 -21 -21 -22 -22 -23 -25 -25 -25 -25 -24 -24 -23 -23 -22 -22 -22 -21 -21 -20 -20 -18 -16 -15 -14 -15
-19 -19 -20 -20 -20 -21 -21 -22 -22 -22 -22 -23 -25 -26 -25 -25 -25 -24 -24 -23 -22 -22 -22 -21 -21 -20 -20 -19 -17 -15 -15 -15
-19 -20 -19 -20 -20 -21 -21 -22 -22 -22 -22 -23 -25 -26 -26 -26 -25 -25 -24 -24 -23 -22 -22 -22 -21 -21 -20 -20 -18 -17 -15 -14
-19 -20 -19 -20 -21 -21 -22 -22 -23 -23 -23 -23 -25 -27 -27 -26 -26 -25 -25 -24 -24 -23 -22 -22 -21 -21 -20 -20 -19 -18 -15 -14
-19 -19 -19 -20 -21 -21 -22 -23 -23 -23 -23 -23 -25 -27 -27 -27 -26 -26 -25 -25 -24 -23 -22 -22 -21 -20 -20 -20 -19 -18 -17 -15
-19 -19 -20 -21 -21 -22 -22 -23 -23 -23 -23 -24 -25 -27 -28 -27 -27 -26 -26 -25 -25 -23 -22 -22 -21 -20 -20 -20 -19 -18 -17 -15
-19 -20 -20 -21 -21 -22 -22 -23 -23 -23 -23 -24 -25 -28 -29 -28 -27 -27 -26 -26 -25 -24 -23 -22 -21 -20 -20 -20 -19 -19 -18 -17
-19 -20 -20 -21 -22 -22 -23 -23 -23 -24 -24 -24 -25 -28 -29 -28 -28 -27 -27 -26 -26 -25 -24 -23 -22 -20 -20 -20 -20 -19 -18 -18
-19 -20 -21 -21 -22 -22 -23 -23 -23 -24 -24 -24 -25 -27 -29 -29 -28 -27 -27 -26 -26 -25 -24 -23 -22 -21 -20 -20 -20 -19 -18 -18
-20 -20 -21 -21 -22 -22 -23 -23 -23 -24 -24 -24 -25 -27 -28 -29 -28 -28 -27 -26 -26 -25 -25 -24 -23 -21 -20 -20 -20 -19 -19 -18
-20 -20 -20 -21 -22 -22 -22 -23 -23 -24 -24 -25 -25 -26 -28 -29 -28 -28 -27 -26 -26 -26 -25 -25 -23 -22 -21 -20 -20 -19 -19 -18
-19 -20 -20 -21 -21 -22 -22 -23 -23 -24 -25 -25 -25 -26 -28 -29 -29 -28 -27 -27 -26 -26 -25 -25 -24 -23 -21 -20 -19 -19 -18 -18
-20 -20 -21 -21 -21 -22 -23 -23 -23 -24 -24 -25 -25 -26 -27 -28 -29 -28 -28 -27 -26 -26 -25 -25 -25 -24 -22 -21 -20 -19 -19 -18
Height
5752 5745 5738 5730 5722 5713 5704 5692 5683 5676 5671 5667 5663 5658 5655 5654 5653 5653 5655 5657 5663 5668 5675 5685 5694 5701 5708 5719 5722 5730 5735 5744
5748 5740 5732 5724 5716 5707 5699 5688 5677 5668 5660 5656 5654 5651 5645 5644 5643 5642 5643 5644 5647 5650 5656 5665 5675 5683 5691 5701 5710 5717 5723 5730
5745 5736 5728 5720 5711 5703 5693 5682 5670 5659 5651 5645 5641 5640 5634 5633 5632 5632 5632 5632 5635 5638 5640 5647 5656 5665 5674 5686 5697 5702 5709 5718
5742 5734 5725 5716 5707 5696 5686 5675 5664 5652 5643 5636 5630 5626 5622 5622 5620 5620 5620 5622 5624 5627 5630 5632 5638 5648 5656 5666 5678 5686 5695 5704
5738 5730 5721 5711 5701 5690 5680 5669 5658 5647 5635 5627 5621 5616 5612 5610 5610 5609 5609 5611 5612 5616 5619 5623 5625 5631 5640 5648 5661 5667 5680 5690
5735 5726 5717 5706 5697 5687 5676 5665 5654 5641 5629 5618 5612 5608 5601 5599 5599 5599 5599 5599 5601 5604 5608 5612 5616 5618 5623 5632 5642 5652 5662 5675
5732 5723 5713 5704 5694 5683 5673 5662 5650 5637 5624 5612 5603 5596 5592 5590 5588 5588 5589 5589 5590 5593 5596 5601 5606 5609 5611 5616 5625 5636 5646 5658
5730 5720 5712 5702 5692 5681 5671 5659 5645 5632 5618 5605 5594 5585 5582 5579 5578 5578 5577 5578 5579 5582 5585 5589 5594 5598 5602 5604 5610 5620 5632 5642
5727 5718 5709 5699 5687 5677 5666 5653 5640 5626 5612 5598 5584 5576 5571 5569 5568 5568 5567 5567 5570 5572 5575 5578 5583 5587 5591 5594 5597 5605 5617 5628
5724 5716 5706 5694 5683 5673 5661 5648 5635 5621 5606 5591 5577 5568 5563 5560 5559 5558 5557 5558 5560 5562 5565 5568 5571 5576 5579 5583 5586 5591 5601 5612
5722 5714 5701 5690 5680 5669 5657 5645 5631 5617 5602 5586 5571 5560 5556 5553 5550 5550 5549 5549 5550 5552 5555 5558 5561 5565 5569 5571 5574 5579 5586 5597
5720 5709 5699 5689 5679 5667 5655 5642 5628 5614 5599 5582 5566 5555 5550 5547 5544 5543 5542 5542 5542 5543 5545 5548 5550 5555 5558 5560 5563 5567 5573 5582
5715 5706 5698 5688 5677 5665 5652 5640 5626 5612 5596 5579 5562 5551 5545 5542 5539 5537 5536 5535 5535 5534 5535 5538 5541 5545 5548 5550 5551 5555 5562 5570
5713 5705 5696 5686 5676 5663 5651 5638 5624 5610 5594 5578 5561 5549 5542 5538 5535 5533 5531 5529 5528 5527 5528 5529 5533 5536 5538 5540 5542 5545 5551 5558
5711 5703 5693 5684 5673 5661 5649 5637 5623 5609 5594 5577 5560 5547 5540 5535 5532 5530 5527 5525 5523 5522 5521 5521 5524 5527 5530 5531 5534 5537 5542 5548
5709 5701 5691 5681 5670 5659 5647 5635 5622 5608 5593 5578 5562 5547 5538 5533 5529 5526 5524 5521 5518 5516 5514 5515 5517 5520 5522 5524 5526 5529 5534 5540
5708 5698 5689 5678 5668 5657 5646 5634 5621 5607 5593 5578 5562 5548 5538 5532 5527 5523 5521 5518 5515 5513 5511 5510 5510 5513 5515 5517 5520 5521 5526 5532
5705 5695 5686 5676 5666 5655 5645 5632 5619 5607 5593 5579 5564 5550 5538 5531 5526 5521 5518 5516 5513 5511 5508 5507 5506 5507 5509 5511 5513 5515 5518 5523
5702 5693 5685 5674 5665 5653 5642 5631 5619 5607 5594 5581 5567 5553 5540 5530 5524 5519 5515 5512 5510 5507 5505 5504 5502 5502 5503 5504 5506 5507 5510 5516
Wind_Speed
39 41 43 45 47 50 53 55 50 45 44 40 38 38 38 37 38 40 48 58 66 70 72 74 72 71 69 67 64 57 50 50
42 44 46 48 50 52 54 55 52 44 42 42 42 41 40 38 37 31 35 40 47 63 70 70 73 74 72 67 61 62 54 52
44 46 48 49 51 52 52 54 53 45 41 39 41 42 42 41 38 38 32 31 33 31 43 65 69 71 74 71 61 63 54 43
43 45 46 49 50 52 53 55 55 52 45 38 38 38 42 42 41 38 38 34 28 29 29 29 55 70 70 73 71 68 65 59
44 45 47 49 51 53 54 55 56 56 52 42 38 34 34 38 39 39 39 38 37 31 28 23 26 49 71 70 69 75 72 57
44 46 48 50 49 51 53 55 57 57 57 47 38 32 33 33 36 36 37 35 35 37 32 28 25 26 51 68 68 69 72 71
44 47 49 49 50 50 52 54 56 58 59 54 39 34 33 31 32 34 33 34 32 33 33 34 30 28 30 49 65 69 67 72
45 47 47 49 50 50 51 53 56 59 61 60 43 35 31 31 30 30 32 31 34 31 32 30 31 29 29 35 49 66 68 69
44 45 47 50 52 53 53 55 58 61 63 63 50 35 30 27 28 29 28 29 31 33 32 31 32 31 32 30 41 49 69 70
42 44 49 51 53 54 55 57 60 61 65 65 56 35 28 24 23 25 26 26 27 29 30 30 30 31 31 29 38 43 56 71
41 44 49 52 53 55 56 57 60 62 66 65 58 37 24 22 21 20 22 23 23 24 27 30 30 29 30 31 35 45 46 62
41 47 49 50 53 55 56 57 60 61 65 66 58 38 24 20 18 18 19 20 21 21 23 27 31 26 29 29 32 45 47 51
43 46 47 50 53 55 56 57 59 62 65 67 60 41 25 21 18 16 16 18 19 18 20 24 28 32 26 27 29 44 49 50
42 45 46 49 52 53 56 58 59 61 64 67 62 42 26 22 20 16 16 17 17 18 19 20 22 27 25 26 27 39 47 52
42 44 46 49 51 53 55 57 59 60 62 66 64 46 28 22 20 17 16 16 17 18 19 19 18 22 24 26 25 34 45 48
42 43 45 48 50 52 55 56 58 59 61 64 64 51 33 23 21 18 16 15 15 15 17 17 18 19 22 26 24 29 38 45
41 43 45 47 48 51 54 57 57 58 60 62 64 60 40 27 22 19 17 15 14 14 13 15 16 17 22 27 25 30 35 38
41 42 44 46 49 51 53 55 57 57 58 59 63 61 48 32 25 21 18 16 15 15 12 12 13 14 19 24 25 27 38 38
40 41 43 45 48 50 52 54 56 57 56 58 59 61 57 40 27 23 20 17 15 16 14 11 10 13 14 20 23 26 36 41
Wind_Direction
353 355 355 356 354 353 353 346 331 309 298 290 289 290 289 285 282 274 254 247 242 240 239 238 237 238 240 241 243 237 231 229
353 353 354 354 352 352 353 354 346 322 303 291 285 284 283 283 279 276 275 265 253 245 240 237 237 237 237 242 242 242 249 247
354 352 351 351 351 353 354 355 354 335 315 302 291 280 279 276 278 273 270 271 266 257 253 242 235 235 236 232 238 241 233 236
353 351 349 348 349 352 355 356 356 348 330 310 306 288 277 274 277 277 274 270 265 261 255 255 245 234 235 232 229 233 231 238
351 350 349 348 349 351 354 355 354 352 343 322 307 305 285 275 269 270 272 271 267 263 257 251 249 246 235 234 228 232 228 227
350 349 349 350 349 350 352 353 353 351 348 334 313 301 289 283 276 274 271 274 268 263 256 245 247 244 243 236 233 227 229 227
351 349 351 349 348 350 352 352 352 351 349 343 322 301 290 283 278 276 274 270 269 265 261 252 245 240 236 242 237 230 228 226
350 351 349 349 349 351 351 352 352 352 349 345 332 305 295 284 276 274 272 267 265 264 262 260 239 234 235 238 240 235 227 226
349 351 348 350 352 352 352 353 353 352 349 347 337 315 300 287 279 272 270 269 264 262 261 259 249 237 231 236 233 236 229 223
349 348 349 353 354 354 354 353 353 352 350 347 340 325 308 299 287 275 269 269 263 260 256 256 250 244 239 237 230 228 232 224
345 348 354 356 355 355 354 353 353 352 351 348 344 332 316 310 297 280 272 269 264 261 256 254 254 248 241 238 235 223 225 228
345 352 356 356 356 356 356 353 353 352 352 350 347 338 325 320 308 292 278 274 268 261 253 251 252 251 243 244 241 221 216 224
350 354 356 357 357 357 356 354 353 353 353 353 350 345 333 327 319 305 291 287 276 266 257 246 245 249 248 246 243 225 216 215
352 354 355 357 358 357 357 355 353 354 355 355 353 350 339 331 326 317 304 300 290 275 260 246 236 241 245 242 246 227 219 214
352 353 355 358 357 356 358 356 354 355 356 358 357 356 346 338 331 325 313 308 299 281 270 250 231 233 238 239 247 232 222 217
352 353 355 358 357 356 358 357 356 356 358 360 360 360 354 345 340 333 323 315 309 293 280 260 240 226 231 231 245 235 224 220
352 353 357 355 355 358 358 358 357 357 359 1 2 2 358 350 344 340 333 323 318 313 291 270 253 225 223 224 237 237 227 221
353 352 355 353 356 357 359 357 358 359 359 2 3 4 1 354 346 342 336 326 317 314 313 285 274 248 223 221 231 240 226 221
352 352 353 354 356 356 358 358 358 359 359 1 3 4 4 359 349 343 338 331 318 313 313 302 287 271 241 224 223 227 222 222